STARLINK-5161 (54163 NORAD) Tracking and Keplerian Element Data

This shows tracking and keplerian element data for the satellite.

Feedback or suggestion? Click here.




ElementValue
Catalog54163
NameSTARLINK-5161
Epoch Orbit378
Epoch Day324.91667824
Epoch Year2022
RAAN25.7722
Inclination53.2189
Eccentricity0.000336
Argument of Perigee8.8705
Mean Anonmoly279.5197
Mean Motion15.73201592
Decay Rate-0.00063498
L11 54163U 22141G 22324.91667824 -.00063498 00000+0 -45121-3 0 9992
L22 54163 53.2189 25.7722 0003360 8.8705 279.5197 15.73201592 3787



Live tracking and technical data element details for STARLINK-5161 (NORAD 54163). STARLINK-5161 can be tracked NOW for your location showing map with azimuth and elevation plus other details from your city location.







IsCatalogInMostPopularTable: catalog: 54163, numindb: 8
Update: records affected: 1



GetName: 54163 STARLINK-5161

Hit Count: updated at: Sun, 04 Dec 2022 21:44:06 GMT